date,time,SUV Intensity [MED/Hr],UV Index,Daily total [MED],Since Last [MED]
06/08/2023,23:59:49,0.001,0.0,8.229,8.229
07/08/2023,00:00:49,0.000,0.0,0.0,-8.229
07/08/2023,00:01:50,0.000,0.0,0.0,0.0
07/08/2023,00:02:49,0.000,0.0,0.0,0.0
07/08/2023,00:03:49,0.000,0.0,0.0,0.0
07/08/2023,00:04:50,0.000,0.0,0.0,0.0
07/08/2023,00:05:49,-0.001,0.0,0.0,0.0
07/08/2023,00:06:50,0.000,0.0,0.0,0.0
07/08/2023,00:07:49,0.000,0.0,0.0,0.0
07/08/2023,00:08:49,-0.000,0.0,0.0,0.0
07/08/2023,00:09:50,-0.001,0.0,0.0,0.0
07/08/2023,00:10:49,0.000,0.0,0.0,0.0
07/08/2023,00:11:49,-0.001,0.0,0.0,0.0
07/08/2023,00:12:49,0.000,0.0,0.0,0.0
07/08/2023,00:13:49,0.000,0.0,0.0,0.0
07/08/2023,00:14:50,0.000,0.0,0.0,0.0
07/08/2023,00:15:49,0.000,0.0,0.0,0.0
07/08/2023,00:16:49,0.000,0.0,0.0,0.0
07/08/2023,00:17:49,-0.001,0.0,0.0,0.0
07/08/2023,00:18:49,-0.001,0.0,0.0,0.0
07/08/2023,00:19:50,0.000,0.0,0.0,0.0
07/08/2023,00:20:49,0.000,0.0,0.0,0.0
07/08/2023,00:21:49,0.001,0.0,0.0,0.0
07/08/2023,00:22:49,0.000,0.0,0.0,0.0
07/08/2023,00:23:49,0.001,0.0,0.0,0.0
07/08/2023,00:24:49,0.001,0.0,0.0,0.0
07/08/2023,00:25:49,0.000,0.0,0.0,0.0
07/08/2023,00:26:49,0.000,0.0,0.0,0.0
07/08/2023,00:27:50,0.000,0.0,0.0,0.0
07/08/2023,00:28:49,-0.001,0.0,0.0,0.0
07/08/2023,00:29:49,0.000,0.0,0.0,0.0
07/08/2023,00:30:50,0.000,0.0,0.0,0.0
07/08/2023,00:31:49,0.000,0.0,0.0,0.0
07/08/2023,00:32:49,-0.001,0.0,0.0,0.0
07/08/2023,00:33:49,-0.000,0.0,0.0,0.0
07/08/2023,00:34:50,0.001,0.0,0.0,0.0
07/08/2023,00:35:49,0.001,0.0,0.0,0.0
07/08/2023,00:36:49,-0.000,0.0,0.0,0.0
07/08/2023,00:37:50,0.002,0.0,0.0,0.0
07/08/2023,00:38:49,-0.000,0.0,0.0,0.0
07/08/2023,00:39:49,0.000,0.0,0.0,0.0
07/08/2023,00:40:49,-0.000,0.0,0.0,0.0
07/08/2023,00:41:50,0.001,0.0,0.0,0.0
07/08/2023,00:42:50,0.000,0.0,0.0,0.0
07/08/2023,00:43:49,0.000,0.0,0.0,0.0
07/08/2023,00:44:50,0.000,0.0,0.0,0.0
07/08/2023,00:45:49,0.002,0.0,0.0,0.0
07/08/2023,00:46:49,0.000,0.0,0.0,0.0
07/08/2023,00:47:49,0.001,0.0,0.0,0.0
07/08/2023,00:48:49,0.000,0.0,0.0,0.0
07/08/2023,00:49:50,-0.001,0.0,0.0,0.0
07/08/2023,00:50:49,0.001,0.0,0.0,0.0
07/08/2023,00:51:49,-0.000,0.0,0.0,0.0
07/08/2023,00:52:50,0.001,0.0,0.0,0.0
07/08/2023,00:53:49,-0.000,0.0,0.0,0.0
07/08/2023,00:54:49,0.001,0.0,0.0,0.0
07/08/2023,00:55:49,0.000,0.0,0.0,0.0
07/08/2023,00:56:50,0.000,0.0,0.0,0.0
07/08/2023,00:57:49,0.001,0.0,0.0,0.0
07/08/2023,00:58:49,0.000,0.0,0.0,0.0
07/08/2023,00:59:49,-0.000,0.0,0.0,0.0
07/08/2023,01:00:49,0.000,0.0,0.0,0.0
07/08/2023,01:01:49,0.001,0.0,0.0,0.0
07/08/2023,01:02:50,0.001,0.0,0.0,0.0
07/08/2023,01:03:49,0.000,0.0,0.0,0.0
07/08/2023,01:04:49,0.001,0.0,0.0,0.0
07/08/2023,01:05:49,0.001,0.0,0.0,0.0
07/08/2023,01:06:50,-0.000,0.0,0.0,0.0
07/08/2023,01:07:50,0.000,0.0,0.0,0.0
07/08/2023,01:08:49,-0.000,0.0,0.0,0.0
07/08/2023,01:09:49,0.001,0.0,0.0,0.0
07/08/2023,01:10:50,0.001,0.0,0.0,0.0
07/08/2023,01:11:49,0.000,0.0,0.0,0.0
07/08/2023,01:12:49,0.001,0.0,0.0,0.0
07/08/2023,01:13:49,0.001,0.0,0.0,0.0
07/08/2023,01:14:50,0.000,0.0,0.0,0.0
07/08/2023,01:15:49,0.000,0.0,0.0,0.0
07/08/2023,01:16:49,0.001,0.0,0.0,0.0
07/08/2023,01:17:49,0.002,0.0,0.0,0.0
07/08/2023,01:18:49,0.001,0.0,0.0,0.0
07/08/2023,01:19:49,0.000,0.0,0.0,0.0
07/08/2023,01:20:49,0.001,0.0,0.0,0.0
07/08/2023,01:21:50,0.001,0.0,0.0,0.0
07/08/2023,01:22:49,0.001,0.0,0.0,0.0
07/08/2023,01:23:49,0.001,0.0,0.0,0.0
07/08/2023,01:24:50,0.001,0.0,0.0,0.0
07/08/2023,01:25:49,0.000,0.0,0.0,0.0
07/08/2023,01:26:49,0.001,0.0,0.0,0.0
07/08/2023,01:27:49,0.001,0.0,0.0,0.0
07/08/2023,01:28:49,0.001,0.0,0.0,0.0
07/08/2023,01:29:49,0.001,0.0,0.0,0.0
07/08/2023,01:30:49,0.001,0.0,0.0,0.0
07/08/2023,01:31:49,0.001,0.0,0.0,0.0
07/08/2023,01:32:50,0.001,0.0,0.0,0.0
07/08/2023,01:33:50,0.001,0.0,0.0,0.0
07/08/2023,01:34:50,0.001,0.0,0.0,0.0
07/08/2023,01:35:49,0.001,0.0,0.0,0.0
07/08/2023,01:36:49,0.000,0.0,0.0,0.0
07/08/2023,01:37:49,0.001,0.0,0.0,0.0
07/08/2023,01:38:49,0.000,0.0,0.0,0.0
07/08/2023,01:39:50,0.000,0.0,0.0,0.0
07/08/2023,01:40:49,0.001,0.0,0.0,0.0
07/08/2023,01:41:50,0.001,0.0,0.0,0.0
07/08/2023,01:42:49,0.001,0.0,0.0,0.0
07/08/2023,01:43:49,0.001,0.0,0.0,0.0
07/08/2023,01:44:50,0.000,0.0,0.0,0.0
07/08/2023,01:45:50,0.001,0.0,0.0,0.0
07/08/2023,01:46:50,0.000,0.0,0.0,0.0
07/08/2023,01:47:50,0.002,0.0,0.0,0.0
07/08/2023,01:48:49,0.001,0.0,0.0,0.0
07/08/2023,01:49:49,0.001,0.0,0.0,0.0
07/08/2023,01:50:49,0.000,0.0,0.0,0.0
07/08/2023,01:51:50,0.002,0.0,0.0,0.0
07/08/2023,01:52:50,0.001,0.0,0.0,0.0
07/08/2023,01:53:50,-0.000,0.0,0.0,0.0
07/08/2023,01:54:49,0.001,0.0,0.0,0.0
07/08/2023,01:55:49,0.001,0.0,0.0,0.0
07/08/2023,01:56:49,0.002,0.0,0.0,0.0
07/08/2023,01:57:49,0.000,0.0,0.0,0.0
07/08/2023,01:58:50,0.000,0.0,0.0,0.0
07/08/2023,01:59:50,0.001,0.0,0.0,0.0
07/08/2023,02:00:50,0.000,0.0,0.0,0.0
07/08/2023,02:01:49,0.000,0.0,0.0,0.0
07/08/2023,02:02:49,0.002,0.0,0.0,0.0
07/08/2023,02:03:50,0.000,0.0,0.0,0.0
07/08/2023,02:04:49,0.001,0.0,0.0,0.0
07/08/2023,02:05:50,0.002,0.0,0.0,0.0
07/08/2023,02:06:49,0.000,0.0,0.0,0.0
07/08/2023,02:07:49,0.000,0.0,0.0,0.0
07/08/2023,02:08:49,0.000,0.0,0.0,0.0
07/08/2023,02:09:50,0.002,0.0,0.0,0.0
07/08/2023,02:10:49,0.001,0.0,0.0,0.0
07/08/2023,02:11:49,0.001,0.0,0.0,0.0
07/08/2023,02:12:50,0.001,0.0,0.0,0.0
07/08/2023,02:13:49,0.001,0.0,0.0,0.0
07/08/2023,02:14:49,0.002,0.0,0.0,0.0
07/08/2023,02:15:50,0.001,0.0,0.0,0.0
07/08/2023,02:16:50,-0.000,0.0,0.0,0.0
07/08/2023,02:17:50,0.001,0.0,0.0,0.0
07/08/2023,02:18:50,0.001,0.0,0.0,0.0
07/08/2023,02:19:50,0.000,0.0,0.0,0.0
07/08/2023,02:20:49,0.001,0.0,0.0,0.0
07/08/2023,02:21:49,-0.000,0.0,0.0,0.0
07/08/2023,02:22:50,0.001,0.0,0.0,0.0
07/08/2023,02:23:49,0.001,0.0,0.0,0.0
07/08/2023,02:24:49,0.001,0.0,0.0,0.0
07/08/2023,02:25:50,0.000,0.0,0.0,0.0
07/08/2023,02:26:49,0.001,0.0,0.0,0.0
07/08/2023,02:27:50,0.001,0.0,0.0,0.0
07/08/2023,02:28:49,0.000,0.0,0.0,0.0
07/08/2023,02:29:49,0.001,0.0,0.0,0.0
07/08/2023,02:30:50,0.001,0.0,0.0,0.0
07/08/2023,02:31:49,0.001,0.0,0.0,0.0
07/08/2023,02:32:49,0.001,0.0,0.0,0.0
07/08/2023,02:33:49,0.001,0.0,0.0,0.0
07/08/2023,02:34:50,0.001,0.0,0.0,0.0
07/08/2023,02:35:49,0.001,0.0,0.0,0.0
07/08/2023,02:36:49,0.001,0.0,0.0,0.0
07/08/2023,02:37:50,0.001,0.0,0.0,0.0
07/08/2023,02:38:49,0.001,0.0,0.0,0.0
07/08/2023,02:39:49,0.000,0.0,0.0,0.0
07/08/2023,02:40:50,0.001,0.0,0.0,0.0
07/08/2023,02:41:49,0.001,0.0,0.0,0.0
07/08/2023,02:42:49,0.002,0.0,0.0,0.0
07/08/2023,02:43:50,0.001,0.0,0.0,0.0
07/08/2023,02:44:50,-0.000,0.0,0.0,0.0
07/08/2023,02:45:50,0.000,0.0,0.0,0.0
07/08/2023,02:46:49,0.001,0.0,0.0,0.0
07/08/2023,02:47:49,0.001,0.0,0.0,0.0
07/08/2023,02:48:50,0.000,0.0,0.0,0.0
07/08/2023,02:49:49,0.001,0.0,0.0,0.0
07/08/2023,02:50:49,0.000,0.0,0.0,0.0
07/08/2023,02:51:50,0.001,0.0,0.0,0.0
07/08/2023,02:52:50,0.001,0.0,0.0,0.0
07/08/2023,02:53:50,0.001,0.0,0.0,0.0
07/08/2023,02:54:49,0.001,0.0,0.0,0.0
07/08/2023,02:55:49,0.001,0.0,0.0,0.0
07/08/2023,02:56:50,0.000,0.0,0.0,0.0
07/08/2023,02:57:50,0.001,0.0,0.0,0.0
07/08/2023,02:58:50,0.001,0.0,0.0,0.0
07/08/2023,02:59:49,0.002,0.0,0.0,0.0
07/08/2023,03:00:50,0.001,0.0,0.0,0.0
07/08/2023,03:01:49,0.000,0.0,0.0,0.0
07/08/2023,03:02:50,0.001,0.0,0.0,0.0
07/08/2023,03:03:49,0.002,0.0,0.0,0.0
07/08/2023,03:04:49,0.001,0.0,0.0,0.0
07/08/2023,03:05:50,0.001,0.0,0.0,0.0
07/08/2023,03:06:50,0.002,0.0,0.0,0.0
07/08/2023,03:07:49,0.001,0.0,0.0,0.0
07/08/2023,03:08:50,0.001,0.0,0.0,0.0
07/08/2023,03:09:50,0.001,0.0,0.0,0.0
07/08/2023,03:10:50,0.001,0.0,0.0,0.0
07/08/2023,03:11:50,0.001,0.0,0.0,0.0
07/08/2023,03:12:50,0.002,0.0,0.0,0.0
07/08/2023,03:13:50,0.002,0.0,0.0,0.0
07/08/2023,03:14:50,0.002,0.0,0.0,0.0
07/08/2023,03:15:50,0.001,0.0,0.0,0.0
07/08/2023,03:16:50,0.001,0.0,0.0,0.0
07/08/2023,03:17:49,-0.000,0.0,0.0,0.0
07/08/2023,03:18:49,0.001,0.0,0.0,0.0
07/08/2023,03:19:49,0.002,0.0,0.0,0.0
07/08/2023,03:20:50,0.001,0.0,0.0,0.0
07/08/2023,03:21:50,0.001,0.0,0.0,0.0
07/08/2023,03:22:50,0.002,0.0,0.0,0.0
07/08/2023,03:23:49,0.001,0.0,0.0,0.0
07/08/2023,03:24:50,0.002,0.0,0.0,0.0
07/08/2023,03:25:50,0.001,0.0,0.0,0.0
07/08/2023,03:26:49,0.002,0.0,0.0,0.0
07/08/2023,03:27:50,0.000,0.0,0.0,0.0
07/08/2023,03:28:49,0.001,0.0,0.0,0.0
07/08/2023,03:29:49,0.002,0.0,0.0,0.0
07/08/2023,03:30:50,0.000,0.0,0.0,0.0
07/08/2023,03:31:50,0.000,0.0,0.0,0.0
07/08/2023,03:32:50,0.000,0.0,0.0,0.0
07/08/2023,03:33:49,0.000,0.0,0.0,0.0
07/08/2023,03:34:49,0.000,0.0,0.0,0.0
07/08/2023,03:35:50,0.002,0.0,0.0,0.0
07/08/2023,03:36:49,0.001,0.0,0.0,0.0
07/08/2023,03:37:49,0.000,0.0,0.0,0.0
07/08/2023,03:38:50,0.000,0.0,0.0,0.0
07/08/2023,03:39:50,0.001,0.0,0.0,0.0
07/08/2023,03:40:50,0.001,0.0,0.0,0.0
07/08/2023,03:41:50,0.002,0.0,0.0,0.0
07/08/2023,03:42:50,-0.000,0.0,0.0,0.0
07/08/2023,03:43:50,0.002,0.0,0.0,0.0
07/08/2023,03:44:50,0.001,0.0,0.0,0.0
07/08/2023,03:45:49,0.001,0.0,0.0,0.0
07/08/2023,03:46:49,0.001,0.0,0.0,0.0
07/08/2023,03:47:50,0.000,0.0,0.0,0.0
07/08/2023,03:48:49,0.001,0.0,0.0,0.0
07/08/2023,03:49:50,0.001,0.0,0.0,0.0
07/08/2023,03:50:50,0.001,0.0,0.0,0.0
07/08/2023,03:51:50,0.001,0.0,0.0,0.0
07/08/2023,03:52:50,0.000,0.0,0.0,0.0
07/08/2023,03:53:50,0.001,0.0,0.0,0.0
07/08/2023,03:54:49,0.001,0.0,0.0,0.0
07/08/2023,03:55:50,0.002,0.0,0.0,0.0
07/08/2023,03:56:50,0.002,0.0,0.0,0.0
07/08/2023,03:57:50,0.001,0.0,0.0,0.0
07/08/2023,03:58:50,0.001,0.0,0.0,0.0
07/08/2023,03:59:50,0.001,0.0,0.0,0.0
07/08/2023,04:00:50,0.000,0.0,0.0,0.0
07/08/2023,04:01:49,0.001,0.0,0.0,0.0
07/08/2023,04:02:49,0.001,0.0,0.0,0.0
07/08/2023,04:03:50,0.001,0.0,0.0,0.0
07/08/2023,04:04:49,0.001,0.0,0.0,0.0
07/08/2023,04:05:49,0.002,0.0,0.0,0.0
07/08/2023,04:06:50,0.001,0.0,0.0,0.0
07/08/2023,04:07:50,0.001,0.0,0.0,0.0
07/08/2023,04:08:50,0.001,0.0,0.0,0.0
07/08/2023,04:09:50,0.001,0.0,0.0,0.0
07/08/2023,04:10:48,0.001,0.0,0.0,0.0
07/08/2023,04:11:48,0.002,0.0,0.0,0.0
07/08/2023,04:12:49,0.002,0.0,0.0,0.0
07/08/2023,04:13:50,0.001,0.0,0.0,0.0
07/08/2023,04:14:50,0.001,0.0,0.0,0.0
07/08/2023,04:15:50,0.002,0.0,0.0,0.0
07/08/2023,04:16:50,0.001,0.0,0.0,0.0
07/08/2023,04:17:49,0.002,0.0,0.0,0.0
07/08/2023,04:18:49,0.002,0.0,0.0,0.0
07/08/2023,04:19:50,0.002,0.0,0.0,0.0
07/08/2023,04:20:50,0.002,0.0,0.0,0.0
07/08/2023,04:21:51,0.002,0.0,0.0,0.0
07/08/2023,04:22:50,0.002,0.0,0.0,0.0
07/08/2023,04:23:49,0.003,0.0,0.0,0.0
07/08/2023,04:24:50,0.002,0.0,0.0,0.0
07/08/2023,04:25:50,0.002,0.0,0.0,0.0
07/08/2023,04:26:50,0.002,0.0,0.0,0.0
07/08/2023,04:27:50,0.002,0.0,0.0,0.0
07/08/2023,04:28:50,0.003,0.0,0.0,0.0
07/08/2023,04:29:49,0.002,0.0,0.0,0.0
07/08/2023,04:30:49,0.003,0.0,0.0,0.0
07/08/2023,04:31:50,0.003,0.0,0.0,0.0
07/08/2023,04:32:50,0.003,0.0,0.0,0.0
07/08/2023,04:33:50,0.003,0.0,0.0,0.0
07/08/2023,04:34:49,0.003,0.0,0.0,0.0
07/08/2023,04:35:47,0.003,0.0,0.0,0.0
07/08/2023,04:36:48,0.004,0.0,0.0,0.0
07/08/2023,04:37:50,0.003,0.0,0.0,0.0
07/08/2023,04:38:50,0.004,0.0,0.0,0.0
07/08/2023,04:39:50,0.005,0.0,0.0,0.0
07/08/2023,04:40:49,0.004,0.0,0.0,0.0
07/08/2023,04:41:49,0.004,0.0,0.0,0.0
07/08/2023,04:42:50,0.006,0.0,0.0,0.0
07/08/2023,04:43:49,0.005,0.0,0.0,0.0
07/08/2023,04:44:50,0.005,0.0,0.0,0.0
07/08/2023,04:45:50,0.006,0.0,0.0,0.0
07/08/2023,04:46:50,0.006,0.0,0.0,0.0
07/08/2023,04:47:50,0.006,0.0,0.0,0.0
07/08/2023,04:48:50,0.006,0.0,0.0,0.0
07/08/2023,04:49:49,0.006,0.0,0.0,0.0
07/08/2023,04:50:50,0.007,0.0,0.0,0.0
07/08/2023,04:51:50,0.007,0.0,0.0,0.0
07/08/2023,04:52:50,0.007,0.0,0.001,0.001
07/08/2023,04:53:50,0.007,0.0,0.001,0.0
07/08/2023,04:54:50,0.008,0.0,0.001,0.0
07/08/2023,04:55:50,0.009,0.0,0.001,0.0
07/08/2023,04:56:50,0.009,0.0,0.001,0.0
07/08/2023,04:57:50,0.009,0.0,0.001,0.0
07/08/2023,04:58:49,0.009,0.0,0.001,0.0
07/08/2023,04:59:50,0.010,0.0,0.002,0.001
07/08/2023,05:00:50,0.009,0.0,0.002,0.0
07/08/2023,05:01:50,0.011,0.0,0.002,0.0
07/08/2023,05:02:49,0.011,0.0,0.002,0.0
07/08/2023,05:03:50,0.012,0.0,0.002,0.0
07/08/2023,05:04:50,0.012,0.0,0.002,0.0
07/08/2023,05:05:50,0.012,0.0,0.003,0.001
07/08/2023,05:06:50,0.013,0.0,0.003,0.0
07/08/2023,05:07:50,0.013,0.0,0.003,0.0
07/08/2023,05:08:50,0.012,0.0,0.003,0.0
07/08/2023,05:09:50,0.014,0.0,0.003,0.0
07/08/2023,05:10:50,0.016,0.0,0.004,0.001
07/08/2023,05:11:50,0.016,0.0,0.004,0.0
07/08/2023,05:12:49,0.016,0.0,0.004,0.0
07/08/2023,05:13:49,0.015,0.0,0.005,0.001
07/08/2023,05:14:50,0.017,0.0,0.005,0.0
07/08/2023,05:15:50,0.017,0.0,0.005,0.0
07/08/2023,05:16:49,0.018,0.0,0.005,0.0
07/08/2023,05:17:50,0.019,0.0,0.006,0.001
07/08/2023,05:18:50,0.019,0.0,0.006,0.0
07/08/2023,05:19:50,0.020,0.0,0.006,0.0
07/08/2023,05:20:49,0.021,0.0,0.007,0.001
07/08/2023,05:21:50,0.022,0.0,0.007,0.0
07/08/2023,05:22:50,0.022,0.0,0.007,0.0
07/08/2023,05:23:50,0.024,0.0,0.008,0.001
07/08/2023,05:24:50,0.024,0.0,0.008,0.0
07/08/2023,05:25:50,0.024,0.0,0.009,0.001
07/08/2023,05:26:50,0.025,0.0,0.009,0.0
07/08/2023,05:27:50,0.025,0.0,0.009,0.0
07/08/2023,05:28:50,0.026,0.0,0.01,0.001
07/08/2023,05:29:49,0.026,0.0,0.01,0.0
07/08/2023,05:30:50,0.028,0.0,0.011,0.001
07/08/2023,05:31:50,0.029,0.0,0.011,0.0
07/08/2023,05:32:50,0.031,0.0,0.012,0.001
07/08/2023,05:33:49,0.031,0.0,0.012,0.0
07/08/2023,05:34:50,0.032,0.0,0.013,0.001
07/08/2023,05:35:50,0.033,0.0,0.013,0.0
07/08/2023,05:36:50,0.034,0.0,0.014,0.001
07/08/2023,05:37:50,0.035,0.0,0.014,0.0
07/08/2023,05:38:50,0.036,0.0,0.015,0.001
07/08/2023,05:39:50,0.037,0.0,0.016,0.001
07/08/2023,05:40:50,0.038,0.0,0.016,0.0
07/08/2023,05:41:50,0.038,0.0,0.017,0.001
07/08/2023,05:42:50,0.040,0.0,0.018,0.001
07/08/2023,05:43:49,0.040,0.0,0.018,0.0
07/08/2023,05:44:49,0.042,0.0,0.019,0.001
07/08/2023,05:45:50,0.043,0.0,0.02,0.001
07/08/2023,05:46:50,0.045,0.0,0.02,0.0
07/08/2023,05:47:50,0.045,0.0,0.021,0.001
07/08/2023,05:48:50,0.046,0.0,0.022,0.001
07/08/2023,05:49:50,0.047,0.0,0.023,0.001
07/08/2023,05:50:50,0.048,0.0,0.023,0.0
07/08/2023,05:51:49,0.050,0.0,0.024,0.001
07/08/2023,05:52:50,0.052,0.0,0.025,0.001
07/08/2023,05:53:50,0.052,0.0,0.026,0.001
07/08/2023,05:54:50,0.054,0.0,0.027,0.001
07/08/2023,05:55:49,0.055,0.0,0.028,0.001
07/08/2023,05:56:49,0.058,0.0,0.029,0.001
07/08/2023,05:57:50,0.058,0.0,0.03,0.001
07/08/2023,05:58:50,0.060,0.0,0.031,0.001
07/08/2023,05:59:50,0.061,0.0,0.032,0.001
07/08/2023,06:00:50,0.062,0.0,0.033,0.001
07/08/2023,06:01:50,0.063,0.0,0.034,0.001
07/08/2023,06:02:50,0.065,0.0,0.035,0.001
07/08/2023,06:03:49,0.065,0.0,0.036,0.001
07/08/2023,06:04:49,0.067,0.0,0.037,0.001
07/08/2023,06:05:49,0.068,0.0,0.038,0.001
07/08/2023,06:06:50,0.070,0.0,0.039,0.001
07/08/2023,06:07:50,0.071,0.0,0.04,0.001
07/08/2023,06:08:50,0.073,0.0,0.042,0.002
07/08/2023,06:09:49,0.074,0.0,0.043,0.001
07/08/2023,06:10:51,0.076,0.0,0.044,0.001
07/08/2023,06:11:50,0.076,0.0,0.045,0.001
07/08/2023,06:12:50,0.079,0.0,0.047,0.002
07/08/2023,06:13:50,0.080,0.0,0.048,0.001
07/08/2023,06:14:50,0.083,0.0,0.049,0.001
07/08/2023,06:15:50,0.085,0.0,0.051,0.002
07/08/2023,06:16:50,0.087,0.0,0.052,0.001
07/08/2023,06:17:49,0.091,0.0,0.054,0.002
07/08/2023,06:18:50,0.092,0.0,0.055,0.001
07/08/2023,06:19:50,0.096,0.0,0.057,0.002
07/08/2023,06:20:50,0.099,0.0,0.058,0.001
07/08/2023,06:21:50,0.101,0.0,0.06,0.002
07/08/2023,06:22:49,0.104,0.0,0.062,0.002
07/08/2023,06:23:50,0.106,0.0,0.063,0.001
07/08/2023,06:24:50,0.108,0.0,0.065,0.002
07/08/2023,06:25:50,0.112,0.0,0.067,0.002
07/08/2023,06:26:50,0.114,0.0,0.069,0.002
07/08/2023,06:27:50,0.116,0.0,0.071,0.002
07/08/2023,06:28:50,0.119,0.0,0.073,0.002
07/08/2023,06:29:50,0.121,0.0,0.075,0.002
07/08/2023,06:30:50,0.122,0.0,0.077,0.002
07/08/2023,06:31:50,0.125,0.0,0.079,0.002
07/08/2023,06:32:50,0.130,0.0,0.081,0.002
07/08/2023,06:33:50,0.134,0.0,0.083,0.002
07/08/2023,06:34:50,0.137,0.0,0.085,0.002
07/08/2023,06:35:50,0.140,0.0,0.088,0.003
07/08/2023,06:36:50,0.143,0.0,0.09,0.002
07/08/2023,06:37:50,0.146,0.0,0.093,0.003
07/08/2023,06:38:50,0.150,0.0,0.095,0.002
07/08/2023,06:39:50,0.152,0.0,0.098,0.003
07/08/2023,06:40:49,0.155,0.0,0.1,0.002
07/08/2023,06:41:49,0.159,0.0,0.103,0.003
07/08/2023,06:42:50,0.162,0.0,0.105,0.002
07/08/2023,06:43:50,0.164,0.0,0.108,0.003
07/08/2023,06:44:50,0.167,0.0,0.111,0.003
07/08/2023,06:45:50,0.170,0.0,0.114,0.003
07/08/2023,06:46:50,0.173,0.0,0.117,0.003
07/08/2023,06:47:49,0.177,0.0,0.119,0.002
07/08/2023,06:48:50,0.180,0.0,0.122,0.003
07/08/2023,06:49:50,0.185,0.0,0.125,0.003
07/08/2023,06:50:50,0.188,0.0,0.129,0.004
07/08/2023,06:51:50,0.191,0.0,0.132,0.003
07/08/2023,06:52:50,0.194,0.0,0.135,0.003
07/08/2023,06:53:50,0.198,0.0,0.138,0.003
07/08/2023,06:54:50,0.201,0.0,0.142,0.004
07/08/2023,06:55:50,0.205,0.0,0.145,0.003
07/08/2023,06:56:50,0.209,0.0,0.148,0.003
07/08/2023,06:57:50,0.214,0.0,0.152,0.004
07/08/2023,06:58:50,0.217,0.0,0.156,0.004
07/08/2023,06:59:50,0.220,1.0,0.159,0.003
07/08/2023,07:00:50,0.223,1.0,0.163,0.004
07/08/2023,07:01:50,0.227,1.0,0.167,0.004
07/08/2023,07:02:50,0.232,1.0,0.17,0.003
07/08/2023,07:03:50,0.236,1.0,0.174,0.004
07/08/2023,07:04:50,0.240,1.0,0.178,0.004
07/08/2023,07:05:50,0.244,1.0,0.182,0.004
07/08/2023,07:06:50,0.250,1.0,0.186,0.004
07/08/2023,07:07:50,0.253,1.0,0.191,0.005
07/08/2023,07:08:52,0.256,1.0,0.195,0.004
07/08/2023,07:09:50,0.262,1.0,0.199,0.004
07/08/2023,07:10:50,0.266,1.0,0.204,0.005
07/08/2023,07:11:50,0.270,1.0,0.208,0.004
07/08/2023,07:12:50,0.275,1.0,0.213,0.005
07/08/2023,07:13:50,0.281,1.0,0.217,0.004
07/08/2023,07:14:50,0.285,1.0,0.222,0.005
07/08/2023,07:15:50,0.290,1.0,0.227,0.005
07/08/2023,07:16:49,0.290,1.0,0.232,0.005
07/08/2023,07:17:50,0.299,1.0,0.237,0.005
07/08/2023,07:18:50,0.303,1.0,0.242,0.005
07/08/2023,07:19:50,0.308,1.0,0.247,0.005
07/08/2023,07:20:49,0.313,1.0,0.252,0.005
07/08/2023,07:21:50,0.317,1.0,0.257,0.005
07/08/2023,07:22:50,0.323,1.0,0.262,0.005
07/08/2023,07:23:50,0.327,1.0,0.268,0.006
07/08/2023,07:24:50,0.334,1.0,0.273,0.005
07/08/2023,07:25:50,0.338,1.0,0.279,0.006
07/08/2023,07:26:50,0.343,1.0,0.285,0.006
07/08/2023,07:27:50,0.349,1.0,0.29,0.005
07/08/2023,07:28:50,0.353,1.0,0.296,0.006
07/08/2023,07:29:50,0.359,1.0,0.302,0.006
07/08/2023,07:30:50,0.365,1.0,0.308,0.006
07/08/2023,07:31:50,0.369,1.0,0.314,0.006
07/08/2023,07:32:50,0.374,1.0,0.321,0.007
07/08/2023,07:33:50,0.381,1.0,0.327,0.006
07/08/2023,07:34:48,0.387,1.0,0.333,0.006
07/08/2023,07:35:48,0.391,1.0,0.34,0.007
07/08/2023,07:36:50,0.397,1.0,0.346,0.006
07/08/2023,07:37:50,0.404,1.0,0.353,0.007
07/08/2023,07:38:50,0.411,1.0,0.36,0.007
07/08/2023,07:39:50,0.418,1.0,0.367,0.007
07/08/2023,07:40:50,0.422,1.0,0.374,0.007
07/08/2023,07:41:50,0.430,1.0,0.381,0.007
07/08/2023,07:42:50,0.436,1.0,0.388,0.007
07/08/2023,07:43:50,0.443,1.0,0.395,0.007
07/08/2023,07:44:50,0.448,1.0,0.403,0.008
07/08/2023,07:45:50,0.454,1.0,0.41,0.007
07/08/2023,07:46:50,0.461,1.0,0.418,0.008
07/08/2023,07:47:50,0.466,1.0,0.426,0.008
07/08/2023,07:48:50,0.474,1.0,0.433,0.007
07/08/2023,07:49:50,0.480,1.0,0.441,0.008
07/08/2023,07:50:50,0.485,1.0,0.449,0.008
07/08/2023,07:51:50,0.492,1.0,0.458,0.009
07/08/2023,07:52:50,0.500,1.0,0.466,0.008
07/08/2023,07:53:50,0.507,1.0,0.474,0.008
07/08/2023,07:54:50,0.515,1.0,0.483,0.009
07/08/2023,07:55:50,0.520,1.0,0.491,0.008
07/08/2023,07:56:50,0.530,1.0,0.5,0.009
07/08/2023,07:57:50,0.538,1.0,0.509,0.009
07/08/2023,07:58:50,0.547,1.0,0.518,0.009
07/08/2023,07:59:50,0.553,1.0,0.527,0.009
07/08/2023,08:00:50,0.559,1.0,0.537,0.01
07/08/2023,08:01:50,0.567,1.0,0.546,0.009
07/08/2023,08:02:50,0.574,1.0,0.555,0.009
07/08/2023,08:03:50,0.582,1.0,0.565,0.01
07/08/2023,08:04:50,0.589,1.0,0.575,0.01
07/08/2023,08:05:50,0.598,1.0,0.585,0.01
07/08/2023,08:06:50,0.606,1.0,0.595,0.01
07/08/2023,08:07:50,0.617,1.0,0.605,0.01
07/08/2023,08:08:50,0.626,1.0,0.615,0.01
07/08/2023,08:09:49,0.632,1.0,0.626,0.011
07/08/2023,08:11:13,0.651,1.0,0.64,0.014
07/08/2023,08:12:50,0.662,2.0,0.658,0.018
07/08/2023,08:13:50,0.670,2.0,0.669,0.011
07/08/2023,08:14:50,0.675,2.0,0.681,0.012
07/08/2023,08:15:50,0.680,2.0,0.692,0.011
07/08/2023,08:16:50,0.684,2.0,0.703,0.011
07/08/2023,08:17:50,0.687,2.0,0.715,0.012
07/08/2023,08:18:50,0.684,2.0,0.726,0.011
07/08/2023,08:19:50,0.678,2.0,0.737,0.011
07/08/2023,08:20:50,0.688,2.0,0.749,0.012
07/08/2023,08:21:48,0.697,2.0,0.76,0.011
07/08/2023,08:22:48,0.706,2.0,0.772,0.012
07/08/2023,08:23:50,0.717,2.0,0.784,0.012
07/08/2023,08:24:50,0.724,2.0,0.796,0.012
07/08/2023,08:25:50,0.735,2.0,0.808,0.012
07/08/2023,08:26:50,0.748,2.0,0.82,0.012
07/08/2023,08:27:51,0.762,2.0,0.833,0.013
07/08/2023,08:28:50,0.775,2.0,0.846,0.013
07/08/2023,08:29:50,0.792,2.0,0.859,0.013
07/08/2023,08:30:50,0.810,2.0,0.872,0.013
07/08/2023,08:31:50,0.753,2.0,0.886,0.014
07/08/2023,08:32:50,0.780,2.0,0.898,0.012
07/08/2023,08:33:50,0.588,1.0,0.91,0.012
07/08/2023,08:34:50,0.736,2.0,0.92,0.01
07/08/2023,08:35:50,0.798,2.0,0.934,0.014
07/08/2023,08:36:50,0.768,2.0,0.947,0.013
07/08/2023,08:37:50,0.836,2.0,0.96,0.013
07/08/2023,08:38:50,0.863,2.0,0.974,0.014
07/08/2023,08:39:50,0.875,2.0,0.989,0.015
07/08/2023,08:40:50,0.883,2.0,1.003,0.014
07/08/2023,08:41:50,0.617,1.0,1.016,0.013
07/08/2023,08:42:50,0.911,2.0,1.028,0.012
07/08/2023,08:43:50,0.694,2.0,1.043,0.015
07/08/2023,08:44:50,0.768,2.0,1.056,0.013
07/08/2023,08:45:50,0.923,2.0,1.069,0.013
07/08/2023,08:46:50,0.853,2.0,1.084,0.015
07/08/2023,08:47:50,0.664,2.0,1.094,0.01
07/08/2023,08:48:50,0.939,2.0,1.109,0.015
07/08/2023,08:49:50,0.798,2.0,1.124,0.015
07/08/2023,08:50:50,0.953,2.0,1.139,0.015
07/08/2023,08:51:50,0.964,2.0,1.155,0.016
07/08/2023,08:52:50,0.973,2.0,1.171,0.016
07/08/2023,08:53:51,0.986,2.0,1.188,0.017
07/08/2023,08:54:50,1.002,2.0,1.204,0.016
07/08/2023,08:55:50,1.004,2.0,1.221,0.017
07/08/2023,08:56:50,1.012,2.0,1.238,0.017
07/08/2023,08:57:50,1.017,2.0,1.253,0.015
07/08/2023,08:58:50,1.028,2.0,1.271,0.018
07/08/2023,08:59:50,1.035,2.0,1.288,0.017
07/08/2023,09:00:50,1.046,2.0,1.305,0.017
07/08/2023,09:01:50,1.062,2.0,1.323,0.018
07/08/2023,09:02:50,1.074,2.0,1.34,0.017
07/08/2023,09:03:50,1.084,2.0,1.358,0.018
07/08/2023,09:04:50,1.092,3.0,1.377,0.019
07/08/2023,09:05:50,1.083,2.0,1.395,0.018
07/08/2023,09:06:50,1.085,2.0,1.413,0.018
07/08/2023,09:07:50,1.084,2.0,1.431,0.018
07/08/2023,09:08:50,1.101,3.0,1.449,0.018
07/08/2023,09:09:50,1.110,3.0,1.467,0.018
07/08/2023,09:10:51,1.123,3.0,1.486,0.019
07/08/2023,09:11:50,1.132,3.0,1.505,0.019
07/08/2023,09:12:50,1.134,3.0,1.524,0.019
07/08/2023,09:13:50,1.124,3.0,1.543,0.019
07/08/2023,09:14:50,1.118,3.0,1.561,0.018
07/08/2023,09:15:50,1.133,3.0,1.58,0.019
07/08/2023,09:16:50,1.149,3.0,1.599,0.019
07/08/2023,09:17:50,1.150,3.0,1.618,0.019
07/08/2023,09:18:51,1.147,3.0,1.637,0.019
07/08/2023,09:19:50,1.173,3.0,1.656,0.019
07/08/2023,09:20:50,1.196,3.0,1.676,0.02
07/08/2023,09:21:50,1.213,3.0,1.696,0.02
07/08/2023,09:22:51,1.241,3.0,1.717,0.021
07/08/2023,09:23:50,1.169,3.0,1.737,0.02
07/08/2023,09:24:50,1.254,3.0,1.757,0.02
07/08/2023,09:25:50,0.984,2.0,1.776,0.019
07/08/2023,09:26:49,0.993,2.0,1.792,0.016
07/08/2023,09:28:14,1.196,3.0,1.815,0.023
07/08/2023,09:29:51,1.015,2.0,1.843,0.028
07/08/2023,09:30:51,0.899,2.0,1.861,0.018
07/08/2023,09:31:50,1.034,2.0,1.878,0.017
07/08/2023,09:32:50,0.771,2.0,1.894,0.016
07/08/2023,09:33:50,0.842,2.0,1.908,0.014
07/08/2023,09:34:50,0.510,1.0,1.919,0.011
07/08/2023,09:35:50,0.481,1.0,1.927,0.008
07/08/2023,09:36:51,0.485,1.0,1.935,0.008
07/08/2023,09:37:50,0.507,1.0,1.943,0.008
07/08/2023,09:38:50,0.566,1.0,1.952,0.009
07/08/2023,09:39:50,0.671,2.0,1.962,0.01
07/08/2023,09:40:50,0.726,2.0,1.974,0.012
07/08/2023,09:42:19,1.088,3.0,1.996,0.022
07/08/2023,09:43:51,1.003,2.0,2.021,0.025
07/08/2023,09:44:50,0.722,2.0,2.036,0.015
07/08/2023,09:45:50,0.798,2.0,2.048,0.012
07/08/2023,09:47:20,0.808,2.0,2.067,0.019
07/08/2023,09:48:51,0.834,2.0,2.087,0.02
07/08/2023,09:49:50,0.643,1.0,2.1,0.013
07/08/2023,09:50:50,0.738,2.0,2.112,0.012
07/08/2023,09:51:50,0.658,2.0,2.122,0.01
07/08/2023,09:52:50,0.723,2.0,2.134,0.012
07/08/2023,09:53:50,0.784,2.0,2.146,0.012
07/08/2023,09:54:50,0.821,2.0,2.16,0.014
07/08/2023,09:55:50,0.941,2.0,2.175,0.015
07/08/2023,09:56:50,0.834,2.0,2.191,0.016
07/08/2023,09:57:50,0.805,2.0,2.204,0.013
07/08/2023,09:58:50,0.841,2.0,2.219,0.015
07/08/2023,09:59:50,0.888,2.0,2.234,0.015
07/08/2023,10:00:50,1.256,3.0,2.252,0.018
07/08/2023,10:01:50,1.368,3.0,2.274,0.022